Preview of NWS' New Version of Forecast
This preview is not operational and should not be used for support decisions.

Regional Weather Roundup (RWR)

Issued by National Weather Service (NWS)

                            
000
ASUS42 KTBW 262216
RWRFL 
FLORIDA REGIONAL WEATHER ROUNDUP
NATIONAL WEATHER SERVICE TAMPA BAY RUSKIN FL
600 PM EDT TUE MAR 26 2019

NOTE: "FAIR" INDICATES FEW OR NO CLOUDS BELOW 12,000 FEET WITH NO
SIGNIFICANT WEATHER AND/OR OBSTRUCTIONS TO VISIBILITY.

FLZ001>010-012>015-112-114-115-262300-
PANHANDLE FLORIDA
  
CITY           SKY/WX    TMP DP  RH WIND       PRES   REMARKS
PENSACOLA      CLOUDY    62  45  53 NW18G24   30.11S                  
PENSACOLA NAS  PTSUNNY   62  47  57 N15G24    30.11R                  
MILTON NAS     PTSUNNY   58  46  64 N15       30.12S                  
CRESTVIEW      CLOUDY    60  46  59 NW10      30.12R                  
DUKE FIELD     CLOUDY    59  45  60 NW13      30.10R                  
VALPARAISO     CLOUDY    62  46  56 N14       30.08R                  
MARY ESTHER    CLOUDY    61  47  59 N16       30.08R                  
PANAMA CITY    FAIR      69  47  45 NW16      30.03S                  
TYNDALL AFB    FAIR      72  49  43 N12       30.02S                  
APALACHICOLA   FAIR      71  53  52 W16       30.00R                  

STATION/POSITION SKY/WX   TEMP    WIND        PRES    WAVE   SWELL
                          AIR SEA DIR/SP/G            HT/PER HT/PER
                          (F)     (DEG/KT/KT) (MB)    (FT/S) (FT/S)
30.1N   87.6W                                 1019.7R   3/ 4
29.2N   88.2W                     330/ 17/ 21 1020.6R   4/ 5
PANAMA CITY BEAC           67 65              1017.5R
TOWER C                    64     290/ 21/ 23 1016.4S

$$
FLZ011-016>038-118-127-128-134-139-239-262300-
NORTH FLORIDA
  
CITY           SKY/WX    TMP DP  RH WIND       PRES   REMARKS
MARIANNA       PTSUNNY   69  48  47 N15       30.03R                  
TALLAHASSEE    FAIR      75  49  39 NW7       29.99S                  
PERRY          FAIR      77  49  36 N9        29.97S                  
LIVE OAK       SUNNY     77  48  36 NW7       29.97R                  
CROSS CITY     FAIR      75  54  48 W14       29.97S                  
LAKE CITY      CLOUDY    73  48  40 N5        29.97S                  
GAINESVILLE    FAIR      80  48  32 NW5       29.97S                  
WILLISTON        N/A    N/A N/A N/A MISG        N/A                   
PALATKA        FAIR      68  57  68 E15G21    30.00R                  
MAYPORT NAS    FAIR      66  57  72 NE17      30.02R                  
JACKSONVILLE   FAIR      67  52  58 NE18      30.02R                  
JAX NAS        PTSUNNY   68  53  58 NE14      30.02R                  
JAX CECIL      SUNNY    N/A N/A N/A NE14      30.00R                  
FERNANDINA BEA FAIR      65  56  73 NE16      30.03R                  
ST AUGUSTINE   PTSUNNY   64  56  75 NE17      30.02S                  
PALM COAST     PTSUNNY   64  57  77 NE12G23   30.00R                  

STATION/POSITION SKY/WX   TEMP    WIND        PRES    WAVE   SWELL
                          AIR SEA DIR/SP/G            HT/PER HT/PER
                          (F)     (DEG/KT/KT) (MB)    (FT/S) (FT/S)
SHELL POINT      NOT AVBL
KEATON BEACH               68     260/ 16/ 18 1015.4S
CEDAR KEY                  69     260/  9/ 12 1015.5S
FERNANDINA                 67 66              1017.4R
30.7N   81.3W                 65                N/A     3/ 4
MAYPORT                    63 65              1016.6R
31.4N   80.9W              60 63   50/ 23/ 27 1017.4R   3/ 4
ST AUGUSTINE               63 67   30/ 17/ 20 1016.0S

$$
FLZ040-043>046-052-053-057-058-063-144-262300-
INTERIOR CENTRAL FLORIDA
  
CITY           SKY/WX    TMP DP  RH WIND       PRES   REMARKS
OCALA          FAIR      78  51  38 SW17      29.95S                  
LEESBURG       FAIR      78  51  38 W13       29.97R                  
SANFORD        FAIR      71  60  68 E14       29.97R                  
ORLANDO EXEC   FAIR      77  60  55 NE16      29.95R                  
ORLANDO INTL   FAIR      82  52  35 NW12      29.94S                  
KISSIMMEE      FAIR      82  55  39 W12       29.96R                  
WINTER HAVEN   FAIR      80  59  48 W14       29.97R                  
LAKELAND       SUNNY     79  57  47 W14       29.98R                  
BARTOW         FAIR      81  57  44 W14       29.95S                  
SEBRING        FAIR      81  59  46 W10       29.95R                  
OKEECHOBEE     FAIR      82  54  36 NW7       29.93S                  

$$
FLZ041-047-054-059-064-141-147-262300-
EAST CENTRAL FLORIDA
  
CITY           SKY/WX    TMP DP  RH WIND       PRES   REMARKS
ORMOND BEACH   MOSUNNY   66  61  82 NE13      30.00R                  
DAYTONA BEACH  PTSUNNY   68  61  78 NE15      29.99S                  
DELAND         RAIN      66  57  72 NE9       29.98R                  
NEW SMYRNA BEA MOSUNNY   64  57  77 NE12      30.00S                  
JFK SPACE CTR  FAIR      71  60  68 NE9       29.97R                  
TITUSVILLE     MOSUNNY   73  61  64 NE12      29.97S                  
CAPE CANAVERAL FAIR      71  60  69 NE7       29.95S                  
PATRICK AFB    FAIR      72  64  77 NE12      29.96S                  
MELBOURNE      CLOUDY    74  61  63 NE14      29.96S                  
VERO BEACH     FAIR      74  63  68 E12       29.96R                  
FT PIERCE      FAIR      73  61  65 NE8       29.95R                  
STUART         MOSUNNY   77  64  65 E12       29.95S                  

STATION/POSITION SKY/WX   TEMP    WIND        PRES    WAVE   SWELL
                          AIR SEA DIR/SP/G            HT/PER HT/PER
                          (F)     (DEG/KT/KT) (MB)    (FT/S) (FT/S)
28.5N   80.2W              70      20/ 16/ 19 1015.2
28.9N   78.5W              72 74  350/ 10/ 14 1015.5R   4/ 6   3/ 6
TRIDENT PIER               71 69              1015.7R
28.4N   80.5W                 70                N/A     2/ 9
27.5N   80.2W                 74                N/A     2/ 8

$$
FLZ050-056-061-142-242-148-248-149-249-151-251-155-255-
160-260-262300-
WEST CENTRAL FLORIDA
  
CITY           SKY/WX    TMP DP  RH WIND       PRES   REMARKS
CRYSTAL RIVER  FAIR      72  61  68 W10G16    29.99S                  
INVERNESS      FAIR      77  54  44 W6        29.98S                  
BROOKSVILLE    FAIR      76  57  51 NW14      29.99S                  
CLEARWATER AIR FAIR      72  63  73 NW9       30.00R                  
ST PETE CLEARW FAIR      74  62  66 NW14      29.99S                  
TAMPA INTL     FAIR      76  60  57 W13       29.99S                  
TAMPA EXEC     FAIR      75  59  57 NW7       29.99S                  
PLANT CITY     FAIR      79  57  47 W12       30.00R                  
MACDILL AFB    FAIR      75  62  62 W9        29.99S                  
PETER O KNIGHT CLOUDY    77  64  65 W8        29.99S                  
ST PETERSBURG  PTSUNNY   74  63  68 NW10      29.97S                  
SARASOTA       FAIR      74  64  71 W13       29.98S                  
VENICE         FAIR      75  66  73 NW14      30.00S                  

STATION/POSITION SKY/WX   TEMP    WIND        PRES    WAVE   SWELL
                          AIR SEA DIR/SP/G            HT/PER HT/PER
                          (F)     (DEG/KT/KT) (MB)    (FT/S) (FT/S)
27.3N   84.2W                 73                N/A     3/ 4
CLEARWATER BEACH           70 74              1016.0S
MIDDLE TAMPA BAY           71                 1015.8F
VENICE                     71 72  310/ 11/ 13 1015.7R

$$
FLZ066-069-070-075>078-162-262-165-265-262300-
SOUTHWEST FLORIDA AND KEYS
  
CITY           SKY/WX    TMP DP  RH WIND       PRES   REMARKS
PUNTA GORDA    FAIR      79  58  48 W15       29.98S                  
FT MYERS       FAIR      79  56  45 W15       29.96S                  
SOUTHWEST INTL FAIR      79  56  45 NW13      29.96S                  
NAPLES         FAIR      77  60  55 NW13      29.98S                  
MARCO ISLAND   FAIR      78  65  63 W14       29.98S                  
IMMOKALEE      FAIR      82  57  42 W13G22    29.93S                  
MARATHON       FAIR      82  65  56 NW7       29.98R                  
KEY WEST NAS   FAIR      81  68  64 N9        29.99S                  
KEY WEST INTL  FAIR      81  70  69 N8        29.99S                  

STATION/POSITION SKY/WX   TEMP    WIND        PRES    WAVE   SWELL
                          AIR SEA DIR/SP/G            HT/PER HT/PER
                          (F)     (DEG/KT/KT) (MB)    (FT/S) (FT/S)
NAPLES                     74 77              1015.3R
DRY TORTUGAS               76     350/ 10/ 12 1015.7F
SAND KEY                   75                 1015.5F
SOMBRERO KEY               75                 1014.6F

$$
FLZ067-068-071>074-168-172>174-262300-
SOUTHEAST FLORIDA 
  
CITY           SKY/WX    TMP DP  RH WIND       PRES   REMARKS
W PALM BEACH   PTSUNNY   80  65  59 VRB3      29.94F                  
BOCA RATON     MOSUNNY   79  66  65 SE7       29.94S                  
FT LAUDER-EXEC FAIR      80  64  58 E9        29.94F                  
FT LAUDERDALE  FAIR      79  65  62 E10       29.93F                  
POMPANO BEACH  FAIR      78  64  61 E8        29.94F                  
PEMBROKE PINES PTSUNNY   79  64  60 E9        29.95S                  
OPA LOCKA      CLOUDY    80  63  55 SE6       29.95S                  
MIAMI          PTSUNNY   78  65  63 SE13G20   29.95R                  
WEST KENDALL   CLOUDY    84  65  52 VRB7      29.94S                  
HOMESTEAD      PTSUNNY   81  65  59 SE8       29.94R                  

STATION/POSITION SKY/WX   TEMP    WIND        PRES    WAVE   SWELL
                          AIR SEA DIR/SP/G            HT/PER HT/PER
                          (F)     (DEG/KT/KT) (MB)    (FT/S) (FT/S)
VIRGINIA KEY               78 78              1013.6S
LAKE WORTH                 75 78              1014.9F
FOWEY ROCKS                77 78  130/ 10/ 11 1014.9S
SETTLEMENT POINT           76     340/  7/  9 1014.8S

$$